Dr. Bill's Marine Weather

Coastal Marine Forecast

       Alabama   Florida   Louisiana   Mississippi

Printer Friendly AL  FL  LA  MS

Data Buoys:   Western Gulf of Mexico    Eastern Gulf of Mexico
**********************************************************************
  Alabama
1200 PM CDT FRI MAR 27 2015

ALZ051>064-271800-
SOUTHWEST ALABAMA
  
CITY           SKY/WX    TMP DP  RH WIND       PRES   REMARKS
MOBILE         MOSUNNY   61  39  44 NW14G23   30.01F                  
BROOKLEY FIELD SUNNY     61  44  53 NW16      30.02S                  
EVERGREEN      SUNNY     57  41  55 NW10G17   29.98F                  
**********************************************************************
  Florida
1200 PM EDT FRI MAR 27 2015

FLZ001>010-012>015-112-114-115-271700-
PANHANDLE FLORIDA
  
CITY           SKY/WX    TMP DP  RH WIND       PRES   REMARKS
PENSACOLA      PTSUNNY   54  44  69 NW20G29   29.99R                  
PENSACOLA NAS  PTSUNNY   55  45  68 N14G29    29.98R                  
MILTON NAS     PTSUNNY   52  44  74 NW18G28   29.98                   
CRESTVIEW      CLOUDY    53  45  74 NW14G20   29.98R                  
DUKE FIELD     CLOUDY    53  46  76 NW17      29.94R                  
VALPARAISO     CLOUDY    55  46  71 NW10      29.95R                  
MARY ESTHER    PTSUNNY   55  43  62 N18       29.95                   
TRI COUNTY     CLOUDY    54  49  83 VRB5      29.95R                  
PANAMA CITY    CLOUDY    59  52  77 NW17      29.91R                  
TYNDALL AFB    CLOUDY    62  56  79 NW14      29.89R                  
APALACHICOLA   CLOUDY    73  61  65 NW18      29.84S                  

STATION/POSITION SKY/WX   TEMP    WIND        PRES    WAVE   SWELL
                          AIR SEA DIR/SP/G            HT/PER HT/PER
                          (F)     (DEG/KT/KT) (MB)    (FT/S) (FT/S)
30.1N   87.6W              55 67  330/ 19/ 23 1014.7R   4/ 5
29.2N   88.2W              58 72  340/ 21/ 27 1016.6R   6/ 6   2/ 8
28.8N   86.0W              70 76  320/ 17/ 21 1011.5    5/ 6
PANAMA CITY BEAC           59 69  300/ 12/ 16 1012.1R
CAPE SAN BLAS    NOT AVBL
TOWER C                    66     290/ 17/ 19 1011.0R
28.5N   84.5W              72 71  290/ 10/ 12 1011.6R   4/ 7   2/ 7

**********************************************************************
  Louisiana
1200 PM CDT FRI MAR 27 2015

LAZ040-048-061>063-065-066-069-271800-
SOUTHEAST LOUISIANA
  
CITY           SKY/WX    TMP DP  RH WIND       PRES   REMARKS
N.O. AUDUBON   NOT AVBL                                               
N.O. INTL ARPT MOSUNNY   60  35  39 N14       30.08F                  
N.O. LAKEFRONT SUNNY     62  37  39 NW16      30.08F                  
SLIDELL        SUNNY     63  32  31 N14G21    30.06S                  
BATON ROUGE    SUNNY     63  34  33 VRB6      30.10F                  
BOOTHVILLE     SUNNY     61  49  64 NW14      30.07R                  
BELLE CHASSE   MOSUNNY   61  35  37 N12G18    30.07S                  
BOGALUSA*        N/A     62  31  31 N14       30.08F                  
GALLIANO*      SUNNY     64  40  42 MISG      30.09R                  
NEW ROADS*     FAIR      59  38  45 NW9G16    30.12S                  
GONZALES*      FAIR      62  32  32 N8G20     30.09S                  
HAMMOND*       SUNNY     64  28  25 N12G17    30.09F                  
HOUMA*         SUNNY     63  37  39 NW14      30.10R                  
PORT FOURCHON* SUNNY     61  43  51 N13G22    30.12R                  

**********************************************************************
  Mississippi
1200 PM CDT FRI MAR 27 2015

MSZ080>082-271800-
COASTAL MISSISSIPPI
  
CITY           SKY/WX    TMP DP  RH WIND       PRES   REMARKS
BAY ST LOUIS   SUNNY     61  30  31 N12       30.06R                  
BILOXI         SUNNY     63  38  39 NW10      30.02S                  
PASCAGOULA     SUNNY     62  38  40 NW10G22   30.02S                  
GULFPORT       SUNNY     63  35  35 N16G22    30.03S                  
About Us | Coastal Marine Forecast | Offshore Marine Forecast
Gulf Coast Tides | Hourly Weather Observations | Weather Radar
Sea Surface Temperatures | Solar/Lunar Data | Hurricane Advisories | Home
     
USA Logo Dr. Bill's Marine Weather
Last date changed: December 9, 2014 4:08 PM
www.gulfmarineweather.com/hourlyweatherobservations.shtml
Contact Us